Location: De Meie
(52.1219°N, 4.7931°E)
Time: 22:36:11
(UTC+00:00)

Daily predictions for brighter satellites

Satellite Brightness Start Highest point End
(mag) Time Altitude Azimuth Time Altitude Azimuth Time Altitude Azimuth
Tsikada Rocket 4.1 16:02:23 10° S 16:08:45 69° E 16:15:07 10° NNE
ASTEX 1 3.8 16:04:40 10° N 16:09:37 69° W 16:14:31 10° SSW
Cosmos 1340 3.2 16:06:22 10° N 16:09:55 36° ENE 16:13:26 10° SE
Cosmos 1470 Rocket 4.5 16:06:04 10° NNW 16:10:25 54° W 16:14:44 10° S
Cosmos 1782 3.6 16:10:29 10° SSE 16:14:02 32° E 16:17:38 10° NNE
H-2A R/B 3.9 16:12:04 10° N 16:15:34 27° WNW 16:19:01 10° WSW
YAOGAN 1 4.4 16:14:07 10° ENE 16:15:49 12° NE 16:17:31 10° NNE
Cosmos 1315 Rocket 3.9 16:13:04 10° SSE 16:16:21 25° E 16:19:39 10° NE
SL-16 R/B 4.2 16:12:23 10° N 16:17:29 28° NW 16:22:33 10° WSW
Cosmos 1346 Rocket 3.1 16:17:10 10° N 16:20:59 45° ENE 16:24:48 10° SE
NOSS 3-4 (A) 4.2 16:16:06 10° S 16:21:29 35° ESE 16:27:12 10° NE
NOSS 3-4 (C) 4.2 16:16:13 10° S 16:21:36 35° ESE 16:27:18 10° NE
USA 267 4.2 16:17:16 10° SE 16:23:37 52° SW 16:30:00 10° WNW
BREEZE-M DEB (TANK) 3.4 16:14:15 10° W 16:23:45 65° S 16:26:52 10° ESE
ATLAS 3B R/B 2.7 16:17:03 10° NW 16:23:46 89° NE 16:30:39 10° SE
Meteor 1-20 Rocket 4.4 16:18:02 10° NNW 16:23:51 82° W 16:29:30 10° S
SJ-7 4.4 16:21:00 10° SSE 16:25:12 76° ENE 16:29:24 10° N
Cosmos 371 Rocket 3.4 16:21:02 10° NNW 16:25:58 90° WNW 16:30:52 10° SSE
Meteor 1-28 Rocket 4.0 16:24:19 10° N 16:27:59 52° WNW 16:31:38 10° SSW
Cosmos 1733 Rocket 3.9 16:24:20 10° N 16:28:05 27° ENE 16:31:49 10° SE
CZ-4B R/B 3.6 16:23:24 10° S 16:28:41 68° WSW 16:34:05 10° NNW
Cosmos 1400 Rocket 2.8 16:25:26 10° S 16:29:32 80° E 16:33:38 10° NNE
Cosmos 2322 4.3 16:25:19 10° S 16:30:36 40° ESE 16:35:53 10° NE
Cosmos 1869 Rocket 3.5 16:28:45 10° N 16:33:10 79° E 16:37:35 10° SSE
CZ-4B R/B 2.4 16:30:23 10° N 16:33:47 48° WNW 16:37:11 10° SW
NOSS 2-2 (C) 3.3 16:31:01 10° SW 16:34:41 88° SE 16:38:47 12° NE
Cosmos 1269 Rocket 4.5 16:30:37 10° S 16:35:37 44° ESE 16:40:39 10° NE
NOSS 8 (H) 4.1 16:33:50 10° SW 16:36:55 87° NW 16:39:41 13° NE
YAOGAN 6 3.9 16:36:29 10° ESE 16:39:02 19° ENE 16:41:37 10° NNE
Cosmos 2278 Rocket 2.6 16:34:10 10° NNW 16:39:33 41° NE 16:44:53 10° ESE
Meteor 1-11 Rocket 4.2 16:34:07 10° N 16:39:45 41° ENE 16:45:22 10° SE
Cosmos 1933 4.1 16:35:59 10° SSW 16:39:56 53° WNW 16:43:54 10° N
ISS -3.7 16:37:06 10° W 16:40:28 80° S 16:43:34 12° E
Cosmos 1606 3.3 16:37:11 10° SSW 16:40:54 57° WNW 16:44:41 10° N
Cosmos 1689 Rocket 2.6 16:37:58 10° N 16:41:00 61° WNW 16:43:59 10° SSW
IRS-1C Rocket 4.0 16:36:53 10° SSE 16:42:09 77° ENE 16:47:27 10° NNW
Cosmos 494 Rocket 4.1 16:37:00 10° S 16:42:09 57° ESE 16:47:20 10° NNE
RESURS DK-1 4.1 16:39:54 10° SE 16:42:22 16° ESE 16:43:38 14° E
COBE Rocket 4.3 16:39:27 10° NNE 16:43:48 37° E 16:48:06 10° SSE
Okean O Rocket 2.9 16:44:29 10° S 16:48:38 43° W 16:52:49 10° NNW
Cosmos 1666 4.5 16:46:47 10° NNE 16:47:55 14° NE 16:47:55 14° NE
Cosmos 2360 Rocket 2.2 16:45:56 10° SSW 16:51:37 85° ESE 16:57:20 10° NNE
PSLV R/B 3.9 16:48:09 10° NNE 16:52:21 68° ESE 16:56:29 10° S
Cosmos 1048 Rocket 4.3 16:48:37 10° SSW 16:53:59 73° WNW 16:59:24 10° NNE
Cosmos 2369 Rocket 3.9 16:52:11 10° NNW 16:55:11 14° NNE 16:56:52 13° NE
Cosmos 2333 Rocket 2.8 16:50:24 10° S 16:55:38 38° ESE 16:59:52 15° NE
Cosmos 2228 Rocket 3.9 16:51:34 10° SSW 16:56:02 55° WNW 17:00:36 10° N
Cosmos 1302 Rocket 4.0 16:51:38 10° NNW 16:56:58 85° ENE 17:02:14 10° SSE
Okean-O 2.7 16:53:06 10° SE 16:57:25 55° ENE 17:01:46 10° N
NOSS 2-2 (E) 3.8 16:53:55 10° WSW 16:57:39 57° NW 17:01:15 15° NE
Cosmos 1980 Rocket 4.0 16:53:57 10° W 16:58:30 24° NW 17:03:06 10° NNE
ATLAS 2AS CENTAUR R/B 3.1 16:51:03 10° SW 16:59:02 78° SE 17:06:02 14° NE
AQUARIUS 4.1 16:54:48 10° SSE 16:59:18 85° ENE 17:03:51 10° NNW
BREEZE-M R/B 3.6 16:53:19 10° WSW 16:59:26 52° S 17:01:47 19° E
Feng Yun 1-1 Rocket 4.2 16:55:15 10° SSE 17:00:39 85° WSW 17:06:06 10° NNW
Cosmos 2279 Rocket 4.0 16:55:30 10° N 17:01:48 88° E 17:08:04 10° S
Cosmos 1862 Rocket 4.2 17:02:15 10° SSE 17:06:06 32° E 17:08:37 18° NE
Cosmos 2237 Rocket 3.4 17:06:37 10° SSE 17:10:47 21° E 17:11:43 20° E
CZ-4 R/B 1.9 17:07:16 10° SE 17:10:50 34° ENE 17:14:23 10° N
Cosmos 1536 3.3 17:08:05 10° N 17:11:52 37° ENE 17:15:37 10° SE
Exosat Rocket 4.3 17:07:41 10° SSE 17:12:24 32° ESE 17:14:31 23° ENE
Cosmos 1812 3.3 17:10:37 10° SSE 17:14:10 35° E 17:15:32 27° NE
Cosmos 2322 Rocket 3.2 17:09:35 10° WSW 17:14:55 43° NW 17:20:19 10° NNE
SeaSat 1 3.4 17:17:12 24° ENE 17:18:31 28° NE 17:22:41 10° NNW
SL-16 R/B 3.4 17:14:21 10° WSW 17:19:35 37° NW 17:24:51 10° NNE
Cosmos 1707 Rocket 3.6 17:17:55 10° S 17:22:23 87° W 17:26:54 10° N
TIMED 4.4 17:18:58 10° SSW 17:23:18 75° ESE 17:26:07 22° NNE
CZ-4 R/B 4.5 17:21:31 10° SSE 17:25:34 54° ENE 17:29:40 10° N
Nadezhda 4 Rocket 4.1 17:20:18 10° SSE 17:26:26 55° E 17:32:35 10° NNE
USA 215 3.4 17:25:50 23° ENE 17:30:07 71° NNW 17:36:37 10° W
Envisat 3.0 17:25:19 10° SSE 17:30:25 89° WSW 17:35:33 10° NNW
Cosmos 2219 Rocket 2.2 17:25:05 10° SSW 17:30:37 64° ESE 17:34:06 23° NE
Lacrosse 5 rocket 2.9 17:28:43 10° S 17:31:54 21° SE 17:31:54 21° SE
SMAP 4.2 17:27:46 10° S 17:32:15 46° W 17:36:46 10° NNW
COSMOS 2455 3.8 17:26:33 10° WSW 17:32:17 43° NW 17:36:51 16° NNE
STARLINK-67 3.2 17:29:53 10° SW 17:32:26 42° SSE 17:32:26 42° SSE
ERBS 4.3 17:32:28 10° WNW 17:35:22 27° SW 17:38:16 10° SSE
COSMO-SKYMED 1 2.8 17:35:38 35° NE 17:36:57 47° E 17:41:09 10° S
Cosmos 1908 Rocket 3.7 17:32:59 10° N 17:37:20 50° ENE 17:41:36 10° SSE
Cosmos 2297 4.2 17:32:02 10° NNW 17:37:25 39° NE 17:38:58 33° E
Cosmos 1500 3.3 17:36:19 10° NNW 17:40:08 75° W 17:43:53 10° S
Cosmos 1980 4.2 17:35:10 10° S 17:40:14 35° ESE 17:41:04 34° E
H-2A R/B 4.5 17:38:49 10° SSW 17:42:12 33° W 17:45:36 10° NNW
SL-4 R/B 2.7 17:38:55 10° SW 17:42:26 35° SSE 17:42:51 34° SE
Cosmos 1992 Rocket 3.9 17:40:03 10° NNW 17:45:19 86° ENE 17:50:33 10° SSE
COSMOS 2428 2.6 17:42:13 10° SSW 17:47:53 81° ESE 17:51:04 28° NE
Cosmos 2026 Rocket 4.3 17:44:08 10° SSE 17:49:41 39° E 17:50:36 36° ENE
YAOGAN 1 2.4 17:46:51 10° SSE 17:51:10 71° ENE 17:55:29 10° N
Cosmos 1315 Rocket 4.3 17:49:05 10° SW 17:52:46 35° WNW 17:56:31 10° N
Cosmos 292 Rocket 3.7 17:48:09 10° NNW 17:53:00 60° ENE 17:54:26 42° ESE
Cosmos 1943 Rocket 3.4 17:49:03 10° NNW 17:53:09 25° NNE 17:53:09 25° NNE
FengYun 1-2 T 4.3 17:50:19 10° S 17:55:48 76° WSW 18:01:20 10° NNW
CSL-04 Rocket 3.5 17:51:53 10° SSE 17:57:10 80° ENE 18:02:29 10° NNW
USA 116 4.5 17:58:58 41° NE 18:00:37 57° E 18:05:49 10° S
NOSS 3-1 (C) 4.5 17:54:32 10° NW 18:00:49 38° NNE 18:02:52 33° NE
SKYMED 3 4.4 18:00:04 49° NNE 18:01:11 79° ESE 18:05:31 10° SSW
Cosmos 1733 Rocket 4.4 18:01:56 10° NNW 18:06:00 39° W 18:10:05 10° SSW
CSL-04 Debris 4.1 18:01:18 10° SSE 18:06:47 87° WSW 18:12:17 10° NNW
USA 229 DEB 4.4 18:00:16 10° NW 18:06:48 39° NNE 18:08:26 35° NE
USA 229 4.4 18:00:23 10° NW 18:06:54 39° NNE 18:08:31 35° NE
Cosmos 1627 Rocket 4.4 18:02:30 10° SSE 18:08:25 55° E 18:10:30 38° NE
NOSS 3-4 (A) 3.7 18:05:57 10° WSW 18:12:01 66° NW 18:14:46 35° NNE
NOSS 3-4 (C) 3.7 18:06:03 10° WSW 18:12:08 67° NW 18:14:52 36° NNE
YAOGAN 6 3.7 18:08:56 10° S 18:12:17 42° W 18:15:43 10° NNW
Ariane Rocket 3.4 18:14:42 44° NNE 18:14:42 44° NNE 18:18:27 10° N
Cosmos 2344 4.4 18:06:21 10° NW 18:14:41 51° NNE 18:18:31 37° ENE
BREEZE-M DEB (TANK) 3.5 18:12:30 10° WSW 18:15:45 29° SSW 18:15:45 29° SSW
ISS -2.2 18:13:54 10° W 18:16:28 33° SW 18:16:28 33° SW
RESURS DK-1 2.5 18:15:45 10° SW 18:19:34 70° W 18:19:34 70° W
Cosmos 2278 Rocket 3.2 18:18:20 10° NW 18:23:44 46° WSW 18:29:05 10° S
NOAA 11 4.1 18:18:38 10° SSE 18:24:06 85° WSW 18:29:37 10° NNW
SKYMED 2 3.9 18:24:20 51° NNW 18:25:10 63° WNW 18:29:28 10° SSW
Cosmos 2195 Rocket 4.3 18:19:13 10° S 18:25:23 77° E 18:29:39 22° NNE
Cosmos 1092 Rocket 3.9 18:22:28 10° S 18:28:48 87° W 18:35:08 10° N
Cosmos 2242 Rocket 4.0 18:26:30 10° SSW 18:31:01 64° WNW 18:31:38 57° NW
Meteor 1-27 Rocket 4.4 18:29:21 10° SSW 18:34:59 56° WNW 18:40:19 12° N
Cosmos 2360 Rocket 3.9 18:31:36 10° W 18:36:20 26° NW 18:39:12 18° N
Cosmos 2333 Rocket 3.0 18:34:15 10° SW 18:39:50 49° NW 18:41:54 34° N
SL-16 R/B 4.3 18:34:51 10° S 18:35:33 13° S 18:35:33 13° S
Cosmos 2369 Rocket 3.5 18:35:42 10° NNW 18:38:40 27° N 18:38:40 27° N
Cosmos 2251 Rocket 3.8 18:35:55 10° SW 18:41:13 66° WNW 18:41:51 60° NNW
H-2A R/B 4.3 18:49:28 12° N 18:49:28 12° N 18:49:55 10° N
CZ-4 R/B 3.4 18:42:36 10° SSW 18:45:57 26° W 18:49:17 10° NW
NOSS 0 Rocket 3.9 18:41:36 10° SW 18:47:50 78° NW 18:48:39 67° N
ATLAS 2AS CENTAUR R/B 3.7 18:42:56 10° W 18:50:42 48° NNW 18:53:29 36° NNE
Cosmos 2237 Rocket 2.3 18:48:29 10° SSW 18:53:36 71° WSW 18:53:36 71° WSW
SeaSat 1 3.2 18:57:00 48° NW 18:57:00 48° NW 19:00:39 10° NW
Cosmos 2322 Rocket 4.4 18:57:14 10° WNW 19:00:33 16° NNW 19:02:13 14° N
SL-16 R/B 4.4 19:02:22 10° NW 19:05:27 15° NNW 19:06:50 13° N
Cosmos 1553 Rocket 4.1 19:04:03 10° NNW 19:10:21 71° W 19:10:24 71° W
Lacrosse 5 rocket 3.9 19:06:29 10° WSW 19:07:34 17° WSW 19:07:34 17° WSW
USA 215 3.5 19:13:11 58° NNW 19:13:11 58° NNW 19:19:13 10° WNW
Cosmos 2219 Rocket 3.6 19:09:59 10° WSW 19:14:59 32° NW 19:15:50 31° NNW
COSMOS 2428 4.4 19:28:01 10° W 19:32:50 27° NW 19:33:06 27° NW
Cosmos 1943 Rocket 4.0 19:32:33 10° NNW 19:34:41 24° NNW 19:34:41 24° NNW
Cosmos 2344 4.4 20:20:52 10° NW 20:28:32 67° WNW 20:28:32 67° WNW
ATLAS 2AS CENTAUR R/B 4.5 20:36:14 10° WNW 20:40:55 29° NW 20:40:55 29° NW
